Showing default

COSMOS 2431 (GLONASS), 32277

Orbit data source: Space-Track

COSMOS 2431 (GLONASS), 32277 is a Commonwealth of Independent States-origin payload satellite in MEO that was launched on Fri, 26 Oct 2007 UTC via a PROTON-K/DM-2 launch vehicle from the Tyuratam Missile And Space Complex (TTMTR). Payload-class satellites include a variety of spacecraft equipped with specific instruments for various scientific and technological missions. These include communications satellites like Starlink; space stations such as the ISS; scientific satellites like the Hubble; Earth observation satellites from companies like Planet Labs, Umbra, and HawkEye 360; GPS; miniature CubeSats for education and research; and military/defense satellites.

Loading next visibility...
Identifier
32277, 2007-052C
Orbit
MEO
Country
Flag of CISCIS
Related business
Manufacturer
Resehetnev ISS
Mission
Non-operational Defense Navigation
Bus & Motor
URAGAN, Unknown motor
Mass
1,450 kg wet, ~1,200 kg dry
Launch date (UTC)
2007-10-26 (18 years ago)
Launch vehicle
PROTON-K/DM-2
Launch site
Tyuratam Missile And Space Complex (TTMTR)
Object type
Payload
Rocket body
Debris
Shape & HBR
Cyl + 1 Ant + 2 Pan, 3.9 m
Radar Cross Section
8.467 m², Large (>1 m²)

Expand to show TLE details & history
Last TLE update: 1 day ago

TLE from 1 day ago
0 COSMOS 2431 (GLONASS)
1 32277U 07052C   26035.81179550 -.00000070  00000-0  00000-0 0  9995
2 32277  65.6644 320.3157 0014253 176.3582   9.0246  2.13209069142394
Epoch: 2026-02-04T19:28Z
TLE epoch observation values (Epoch: 2026-02-04T19:28:59.131Z)
Latitude
-4.96356°
Longitude
75.33833°
Altitude
19,086.773 km
Speed
3.959 km/s
True Right ascension
09h 30m 13s
True Declination
-4° 57' 19"
Sunlit
Object was in daylight at epoch
Visualization orbit readout
Latitude
Unknown
Longitude
Unknown
Altitude
Unknown
Speed
Unknown
Apparent Right ascension
Unknown
Apparent Declination
Unknown
Sunlit
N/A
Visualization observer readout
Local Sidereal Time
00:25:53
Azimuth
Unknown
Elevation
Unknown
Doppler factor
Unknown
Orbital elements
Apogee altitude
19,157.283 km
Perigee altitude
19,084.595 km
Semi-major axis
25,499.076 km
Eccentricity
0.00143
Inclination
65.6644°
RAAN
320.3157°
Arg. of periapsis
176.3582°
True anomaly
9.05026°
Mean anomaly
9.0246°
Eccentric anomaly
9.03743°
Mean motion
0.53304 °/min
Orbital period
675.38 mins
BSTAR
0
Loading maneuver chart data...
Computing Atmospheric mass density...
Loading historical data...
Loading historical data...
Loading historical data...
Loading historical data...
Loading historical data...
Loading historical data...
Loading historical data...

Documentation

Showing up to 5 results
|